User: anonymous   Login
Location: Zagreb
(45.8000°N, 16.0000°E)
Time: 04:23:41
(UTC+01:00)
Language:

Vanguard 2 Rocket - Orbit

View from above orbital plane
View from above orbital plane
View from above satellite
View from above satellite

Ground track
Ground track

The orbit data is extracted from the following two-line orbital elements,

1    12U 59001B   20024.77759195 -.00000080  00000-0 -42481-4 0  9999
2    12  32.8977 137.1160 1666393  35.3327 334.7052 11.44311470505984
Epoch (UTC): 24 January 2020 18:39:43
Eccentricity: 0.1666393
inclination: 32.8977°
perigee height: 554 km
apogee height: 3326 km
right ascension of ascending node: 137.1160°
argument of perigee: 35.3327°
revolutions per day: 11.44311470
mean anomaly at epoch: 334.7052°
orbit number at epoch: 50598

The dashed part of the orbit path shows where the satellite is in the earth's shadow,  

DLR